ATLAS 5 CENTAUR DEB, 46660

Orbit data source: Space-Track

ATLAS 5 CENTAUR DEB, 46660 is space debris in HEO originally from a launch on Wed, 17 Oct 2018 UTC launched from the Air Force Eastern Test Range (AFETR). Debris objects in space refer to the collection of defunct objects orbiting the Earth. Examples of debris include non-operational satellites, rocket bodies, and fragments generated from explosions, collisions, or faulty payload assembly.

Loading next visibility...
Identifier
46660, 2018-079CN
Orbit
HEO
Country
Flag of USUS
Related business
Flag of USUnited Launch Alliance/Lockheed Martin (US)
Manufacturer
ULA Decatur
Mission
Spacecraft
Bus & Motor
Unknown
Mass
Unknown
Launch date (UTC)
2018-10-17 (8 years ago)
Launch vehicle
Unknown
Launch site
Air Force Eastern Test Range (AFETR)
Object type
Payload
Rocket body
Debris
Shape & HBR
Unknown shape, 1.1 m
Radar Cross Section
RCS unknown

Expand to show TLE details & history
Last TLE update: 2 days ago

TLE from 2 days ago
0 ATLAS 5 CENTAUR DEB
1 46660U 18079CN  26252.94068669 -.00000197  00000-0  00000+0 0  9999
2 46660  13.3651  33.9543 4594002 316.8893  15.0182  1.81071685 13505
Epoch: 2026-09-09T22:34Z
TLE epoch observation values (Epoch: 2026-09-09T22:34:35.330Z)
Latitude
-0.00006°
Longitude
66.37632°
Altitude
10,390.727 km
Speed
5.79 km/s
True Right ascension
02h 16m 02s
True Declination
0° 00' 00"
Sunlit
Object was in daylight at epoch
Visualization orbit readout
Latitude
Unknown
Longitude
Unknown
Altitude
Unknown
Speed
Unknown
Apparent Right ascension
Unknown
Apparent Declination
Unknown
Sunlit
N/A
Visualization observer readout
Local Sidereal Time
05:02:56
Azimuth
Unknown
Elevation
Unknown
Doppler factor
Unknown
Orbital elements
Apogee altitude
35,121.14 km
Perigee altitude
8,994.275 km
Semi-major axis
28,435.845 km
Eccentricity
0.4594
Inclination
13.3651°
RAAN
33.9543°
Arg. of periapsis
316.8893°
True anomaly
42.97301°
Mean anomaly
15.0182°
Eccentric anomaly
26.94581°
Mean motion
0.45263 °/min
Orbital period
795.35 mins
BSTAR
0
Loading maneuver chart data...
Computing Atmospheric mass density...

Documentation

Showing up to 5 results
|